Coffeyville, KS

10:33 AM CDT on June 25, 2017 (GMT -0500)
Coffeyville Municipal

Weather History for KCFV - January, 2012

Change the Weather History Date:

Sunday, January 22, 2012

  Actual Average Record
Temperature  
Mean Temperature 52 °F -  
Max Temperature 66 °F 43 °F 66 °F (2012)
Min Temperature 37 °F 23 °F 12 °F (2003)
Degree Days  
Heating Degree Days 14    
Growing Degree Days 2 (Base 50)    
Moisture  
Dew Point 37 °F    
Average Humidity 63    
Maximum Humidity 83    
Minimum Humidity 21    
Precipitation  
Precipitation 0.00 in - - ()
Sea Level Pressure  
Sea Level Pressure 29.59 in    
Wind  
Wind Speed 17 mph (SSW)    
Max Wind Speed 30 mph    
Max Gust Speed 39 mph    
Visibility 9 miles    
Events      
Averages and records for this station are not official NWS values.
T = Trace of Precipitation, MM = Missing Value Source: NWS Daily Summary

Daily Weather History Graph

Daily Weather History Graph

Search for Another Location

Airport or City:

Trip Planner

Search our weather history database for the weather conditions in past years. The results will help you decide how hot, cold, wet, or windy it might be!

Date:

Astronomy

Jan. 22, 2012 Rise Set
Actual Time 7:32 AM CST 5:35 PM CST
Civil Twilight 7:04 AM CST 6:03 PM CST
Nautical Twilight 6:32 AM CST 6:35 PM CST
Astronomical Twilight 6:01 AM CST 7:06 PM CST
Moon 6:49 AM CST (1/22) 5:18 PM CST (1/22)
Length of Visible Light 10h 59m
Length of Day
10h 03m
Waning Crescent, 0% of the Moon is Illuminated
Jan 22
Waning Crescent
Jan 23
New
Jan 30
First Quarter
Feb 7
Full
Feb 14
Last Quarter

Hourly Weather History & Observations

Time (CST) Temp. Windchill Dew Point Humidity Pressure Visibility Wind Dir Wind Speed Gust Speed Precip Events Conditions
12:20 AM 37.4 °F 31.4 °F 28.4 °F 70% 29.77 in 9.0 mi SSE 8.1 mph - N/A   Overcast
12:52 AM 37.0 °F 33.3 °F 28.9 °F 73% 29.79 in 9.0 mi South 4.6 mph - N/A   Overcast
1:52 AM 39.0 °F 34.0 °F 33.1 °F 79% 29.75 in 7.0 mi SE 6.9 mph - N/A   Overcast
2:52 AM 44.1 °F 37.7 °F 39.0 °F 82% 29.73 in 6.0 mi South 12.7 mph 21.9 mph N/A   Haze
3:52 AM 46.0 °F 38.5 °F 41.0 °F 83% 29.69 in 7.0 mi South 19.6 mph 27.6 mph N/A   Overcast
4:08 AM 46.4 °F 38.7 °F 41.0 °F 81% 29.67 in 6.0 mi South 20.7 mph 28.8 mph N/A   Haze
4:52 AM 46.0 °F 38.0 °F 41.0 °F 83% 29.65 in 6.0 mi South 21.9 mph 31.1 mph N/A   Haze
6:52 AM 48.0 °F - 42.1 °F 80% 29.62 in 7.0 mi South 29.9 mph 36.8 mph N/A   Overcast
8:52 AM 50.0 °F - 43.0 °F 77% 29.57 in 8.0 mi South 25.3 mph 36.8 mph N/A   Overcast
10:43 AM 53.6 °F - 44.6 °F 72% 29.53 in 9.0 mi South 26.5 mph 34.5 mph N/A   Overcast
10:52 AM 53.1 °F - 45.0 °F 74% 29.53 in 9.0 mi South 24.2 mph 32.2 mph N/A   Overcast
11:52 AM 55.0 °F - 46.9 °F 74% 29.51 in 8.0 mi South 18.4 mph 27.6 mph N/A   Overcast
12:52 PM 57.9 °F - 48.9 °F 72% 29.45 in 8.0 mi South 24.2 mph 34.5 mph N/A   Overcast
1:52 PM 63.0 °F - 48.0 °F 58% 29.39 in 10.0 mi South 28.8 mph 36.8 mph N/A   Mostly Cloudy
2:09 PM 62.6 °F - 48.2 °F 59% 29.39 in 10.0 mi South 21.9 mph 29.9 mph N/A   Scattered Clouds
2:52 PM 64.9 °F - 48.0 °F 54% 29.37 in 10.0 mi South 18.4 mph 25.3 mph N/A   Clear
3:52 PM 66.0 °F - 46.9 °F 50% 29.37 in 10.0 mi South 20.7 mph 33.4 mph N/A   Clear
4:52 PM 66.9 °F - 25.0 °F 21% 29.39 in 10.0 mi SW 27.6 mph 33.4 mph N/A   Clear
5:52 PM 63.0 °F - 26.1 °F 25% 29.42 in 10.0 mi SW 11.5 mph - N/A   Scattered Clouds
6:52 PM 63.0 °F - 24.1 °F 23% 29.42 in 10.0 mi SSW 11.5 mph - N/A   Mostly Cloudy
7:52 PM 57.9 °F - 32.0 °F 37% 29.45 in 10.0 mi WSW 25.3 mph 36.8 mph N/A   Partly Cloudy
8:52 PM 46.9 °F - 32.0 °F 56% 29.58 in 10.0 mi WNW 24.2 mph 39.1 mph N/A   Clear
9:52 PM 43.0 °F 34.2 °F 32.0 °F 65% 29.65 in 10.0 mi WNW 20.7 mph 32.2 mph N/A   Mostly Cloudy
10:27 PM 42.8 °F 33.1 °F 30.2 °F 61% 29.70 in 10.0 mi WNW 25.3 mph 33.4 mph N/A   Mostly Cloudy
10:52 PM 42.1 °F 31.9 °F 30.9 °F 65% 29.73 in 10.0 mi NW 26.5 mph 34.5 mph N/A   Overcast
11:23 PM 41.0 °F 32.5 °F 30.2 °F 65% 29.74 in 10.0 mi WNW 17.3 mph 28.8 mph N/A   Overcast
11:48 PM 42.8 °F 35.4 °F 30.2 °F 61% 29.76 in 10.0 mi West 15.0 mph - N/A   Overcast
11:52 PM 42.1 °F 33.9 °F 30.9 °F 65% 29.78 in 10.0 mi WNW 17.3 mph - N/A   Overcast